Location: Boitzum
(52.1496°N, 9.6943°E)
Time: 21:20:51
(UTC+00:00)

Cosmos 1707 Rocket - Pass Details

Date: 13 January 2026
Orbit: 599 x 623 km, 82.5° (Epoch: 16 February)

Event Time Altitude Azimuth Distance (km) Brightness Sun altitude
Rises 06:37:18 0° 342° (NNW) 2,861 6.6 -7.1°
Reaches altitude 10° 06:39:40 10° 333° (NNW) 1,954 5.6 -6.8°
Maximum altitude 06:43:33 34° 269° (W) 1,010 4.2 -6.2°
Drops below altitude 10° 06:47:25 10° 205° (SSW) 1,946 6.2 -5.7°
Sets 06:49:46 0° 196° (SSW) 2,848 7.1 -5.4°
